Flag for Greece Weather past 2 weeks in Santorini, Greece

Now
84 °F

Sunny.


Feels Like: 85 °F
Forecast: 76 / 80 °F
Wind: 13 mph from Northwest

Location: Santorini Island

Current Time: Aug 31, 2015 at 7:06:51 PM

Latest Report: Aug 31, 2015 at 6:20 PM


Visibility: 10 mi

Pressure: 29.92 "Hg

Humidity: 48%

Dew point: 63 °F

Location of SantoriniLocation

Historic Weather in Santorini — Graph

°F

Santorini temperature yesterday

Maximum temperature yesterday: 86 °F (at 4:50 PM)
Minimum temperature yesterday: 75 °F (at 6:20 AM)
Average temperature yesterday: 81 °F

Past Weeks' High & Low Weather Summary

 TemperatureHumidityPressure
High91 °F (Aug 17, 1:50 PM)100% (Aug 23, 5:20 AM)30.01 "Hg (Aug 23, 5:20 AM)
Low73 °F (Aug 27, 6:20 AM)34% (Aug 19, 3:50 PM)29.77 "Hg (Aug 16, 7:20 PM)
Average81 °F63%29.87 "Hg
* Reported Aug 16 5:20 PM — Aug 31 5:50 PM, Santorini, Weather by CustomWeather, © 2015

Note: Actual official high and low records may vary slightly from our data, if they occured in-between our weather recording intervals... More about our weather records

Advertising

Santorini weather history for previous 24 hours

 ConditionsComfort  
Time TempWeatherWind HumidityBarometerVisibility
5:50 PM
Mon, Aug 31
84 °FSunny.13 mph48%29.92 "Hg10 mi
5:20 PM86 °FSunny.14 mph46%29.92 "Hg10 mi
4:50 PM86 °FSunny.14 mph46%29.92 "Hg10 mi
4:20 PM84 °FSunny.7 mph51%29.92 "Hg10 mi
3:50 PM84 °FSunny.7 mph51%29.92 "Hg10 mi
3:20 PM86 °FSunny.12 mph43%29.92 "Hg10 mi
2:50 PM86 °FSunny.12 mph43%29.95 "Hg10 mi
2:20 PM86 °FSunny.13 mph43%29.95 "Hg10 mi
1:50 PM86 °FSunny.13 mph43%29.95 "Hg10 mi
1:20 PM84 °FSunny.17 mph48%29.95 "Hg10 mi
12:50 PM84 °FSunny.17 mph48%29.95 "Hg10 mi
12:20 PM84 °FSunny.17 mph48%29.95 "Hg10 mi
11:50 AM84 °FSunny.17 mph48%29.95 "Hg10 mi
11:20 AM84 °FSunny.17 mph51%29.95 "Hg10 mi
10:50 AM84 °FSunny.17 mph51%29.95 "Hg10 mi
10:20 AM82 °FSunny.17 mph55%29.95 "Hg10 mi
9:50 AM82 °FSunny.15 mph55%29.95 "Hg10 mi
9:20 AM81 °FSunny.14 mph58%29.95 "Hg10 mi
8:50 AM81 °FSunny.10 mph62%29.92 "Hg10 mi
7:50 AM79 °FSunny.10 mph65%29.92 "Hg10 mi
7:20 AM77 °FClear.9 mph69%29.92 "Hg10 mi
6:50 AM77 °FClear.7 mph65%29.92 "Hg10 mi
6:20 AM77 °FClear.7 mph69%29.92 "Hg10 mi
5:50 AM77 °FClear.7 mph69%29.92 "Hg10 mi
5:20 AM75 °FClear.7 mph65%29.92 "Hg10 mi
4:50 AM75 °FClear.7 mph65%29.92 "Hg10 mi
2:50 AM77 °FClear.7 mph54%29.92 "Hg10 mi
2:20 AM77 °FClear.7 mph54%29.92 "Hg10 mi
1:50 AM77 °FClear.7 mph57%29.95 "Hg10 mi
1:20 AM79 °FClear.7 mph54%29.95 "Hg10 mi
12:50 AM77 °FClear.6 mph54%29.95 "Hg10 mi
12:20 AM77 °FClear.6 mph51%29.95 "Hg10 mi
11:50 PM
Sun, Aug 30
77 °FClear.7 mph51%29.95 "Hg10 mi
11:20 PM77 °FClear.7 mph51%29.95 "Hg10 mi
10:20 PM77 °FClear.6 mph54%29.95 "Hg10 mi
9:50 PM77 °FClear.6 mph54%29.95 "Hg10 mi
9:20 PM79 °FClear.12 mph58%29.95 "Hg10 mi
8:50 PM79 °FClear.12 mph58%29.95 "Hg10 mi
8:20 PM81 °FSunny.14 mph58%29.95 "Hg10 mi
7:50 PM81 °FSunny.14 mph58%29.95 "Hg10 mi
7:20 PM82 °FSunny.15 mph51%29.95 "Hg10 mi
Weather by CustomWeather, © 2015

See weather overviewHow to use our weather pages